Home   Weather   Surat   Past weeks

Flag for India Past Weather in Surat, Gujarat, India — Yesterday and Last 2 Weeks

Now
82 °F

Scattered clouds.


Feels Like: 89 °F
Forecast: 79 / 88 °F
Wind: 6 mph from Northwest

Location: Ahmadabad Airport

Current Time: Sep 25, 2016 at 9:22:47 AM

Latest Report: Sep 25, 2016 at 8:30 AM


Visibility: 2 mi

Pressure: 29.74 "Hg

Humidity: 79%

Dew Point: 75 °F

Location of SuratLocation

Past Weather in Surat — Graph

°F

Surat Temperature Yesterday

Maximum temperature yesterday: 93 °F (at 2:30 PM)
Minimum temperature yesterday: 79 °F (at 6:30 AM)
Average temperature yesterday: 87 °F

High & Low Weather Summary for the Past Weeks

 TemperatureHumidityPressure
High99 °F (Sep 15, 3:00 PM)94% (Sep 18, 8:30 PM)29.86 "Hg (Sep 18, 8:30 PM)
Low75 °F (Sep 18, 10:00 PM)46% (Sep 12, 2:00 PM)29.56 "Hg (Sep 17, 4:00 PM)
Average86 °F71%29.71 "Hg
* Reported Sep 10 7:30 AM — Sep 25 8:00 AM, Surat, Weather by CustomWeather, © 2016

Note: Actual official high and low records may vary slightly from our data, if they occured in-between our weather recording intervals... More about our weather records

Advertising

Surat Weather History for the Previous 24 Hours

Scroll right to see more
 ConditionsComfort  
Time TempWeatherWind HumidityBarometerVisibility
8:00 AM
Sun, Sep 25
81 °FScattered clouds.6 mph79%29.74 "Hg2 mi
7:30 AM81 °FScattered clouds.5 mph79%29.71 "Hg2 mi
7:00 AM81 °FHaze.5 mph79%29.71 "Hg2 mi
6:30 AM81 °FHaze.3 mph79%29.71 "Hg2 mi
6:00 AM81 °FHaze.No wind84%29.68 "Hg2 mi
5:30 AM81 °FHaze.No wind84%29.68 "Hg2 mi
5:00 AM81 °FHaze.No wind84%29.65 "Hg2 mi
4:30 AM81 °FHaze.No wind84%29.65 "Hg2 mi
4:00 AM81 °FHaze.No wind84%29.65 "Hg2 mi
3:30 AM81 °FHaze.3 mph84%29.65 "Hg2 mi
3:00 AM82 °FHaze.5 mph79%29.65 "Hg2 mi
2:30 AM82 °FHaze.5 mph79%29.65 "Hg2 mi
2:00 AM82 °FHaze.8 mph79%29.65 "Hg2 mi
1:30 AM84 °FHaze.6 mph70%29.65 "Hg2 mi
1:00 AM84 °FHaze.6 mph70%29.65 "Hg2 mi
12:30 AM84 °FHaze.6 mph70%29.65 "Hg2 mi
12:00 AM86 °FHaze.6 mph70%29.65 "Hg2 mi
11:30 PM
Sat, Sep 24
86 °FHaze.6 mph70%29.65 "Hg2 mi
11:00 PM86 °FHaze.7 mph70%29.65 "Hg2 mi
10:30 PM88 °FHaze.No wind66%29.65 "Hg2 mi
10:00 PM88 °FHaze.No wind66%29.65 "Hg2 mi
9:30 PM88 °FHaze.No wind66%29.65 "Hg2 mi
9:00 PM90 °FHaze.No wind63%29.65 "Hg2 mi
8:30 PM90 °FHaze.5 mph63%29.62 "Hg2 mi
8:00 PM88 °FPassing clouds.5 mph66%29.62 "Hg2 mi
7:30 PM88 °FPassing clouds.No wind66%29.62 "Hg2 mi
7:00 PM90 °FPassing clouds.No wind63%29.59 "Hg2 mi
6:30 PM91 °FPassing clouds.3 mph59%29.59 "Hg3 mi
6:00 PM93 °FPassing clouds.3 mph59%29.59 "Hg4 mi
5:30 PM93 °FClear.3 mph59%29.59 "Hg5 mi
5:00 PM93 °FClear.6 mph59%29.56 "Hg5 mi
4:30 PM93 °FClear.7 mph59%29.56 "Hg5 mi
4:00 PM93 °FClear.8 mph56%29.59 "Hg5 mi
3:30 PM93 °FClear.7 mph56%29.59 "Hg5 mi
3:00 PM93 °FClear.8 mph59%29.59 "Hg5 mi
2:30 PM93 °FPassing clouds.5 mph59%29.62 "Hg5 mi
2:00 PM91 °FPassing clouds.9 mph63%29.65 "Hg5 mi
1:30 PM91 °FClear.7 mph59%29.65 "Hg5 mi
1:00 PM91 °FClear.8 mph63%29.65 "Hg5 mi
12:30 PM91 °FPassing clouds.7 mph63%29.68 "Hg5 mi
12:00 PM90 °FClear.8 mph63%29.68 "Hg5 mi
11:30 AM88 °FClear.7 mph70%29.71 "Hg5 mi
11:00 AM88 °FClear.9 mph70%29.71 "Hg4 mi
10:30 AM86 °FClear.8 mph70%29.71 "Hg4 mi
10:00 AM86 °FHaze.9 mph70%29.71 "Hg3 mi
9:30 AM84 °FHaze.10 mph74%29.71 "Hg2 mi
9:00 AM82 °FHaze.8 mph74%29.71 "Hg2 mi
Weather by CustomWeather, © 2016

See weather overviewHow to use our weather pages